Regional Weather Roundup
Issued by NWS New Orleans/Baton Rouge, LA

Home | Current Version | Previous Version | Graphics & Text | Print | Product List | Glossary On
Versions: 1 2 3 4 5 6 7 8 9 10 11 12 13 14 15 16 17 18 19 20 21 22 23 24 25 26 27 28 29 30 31 32 33 34 35 36 37 38 39 40 41 42 43 44 45 46 47 48 49 50
124
ASUS44 KLIX 220310
RWRLIX
NEW ORLEANS REGIONAL WEATHER ROUNDUP
NATIONAL WEATHER SERVICE NEW ORLEANS LA
1000 PM CDT MON JUL 21 2014

NOTE: "FAIR" INDICATES FEW OR NO CLOUDS BELOW 12,000 FEET WITH NO
      SIGNIFICANT WEATHER AND/OR OBSTRUCTIONS TO VISIBILITY.
      SKY/WX - SKY CONDITION AND SIGNIFICANT WEATHER.
      TMP - AIR TEMPERATURE.     DP    - DEWPOINT TEMPERATURE.
      RH  - RELATIVE HUMIDITY.   PRES  - PRESSURE.
      HI  - HEAT INDEX.          WCI   - WIND CHILL INDEX.

*  THESE STATIONS ARE NOT NWS OR FAA STATIONS AND ARE NOT UNDER
   NWS QUALITY CONTROL.

LAZ038-040-048-061>063-065>067-069-220400-
SOUTHEAST LOUISIANA

CITY           SKY/WX    TMP DP  RH WIND       PRES   REMARKS
N.O. AUDUBON     N/A     82  73  76 MISG        N/A
N.O. INTL ARPT PTCLDY    82  72  71 CALM      30.00R
N.O. LAKEFRONT CLEAR     86  71  60 N6        30.00R
N.O. DOWNTOWN*   N/A     86  66  51 CALM      30.00S
SLIDELL        CLEAR     78  74  87 CALM      29.99S
BATON ROUGE    CLEAR     77  72  84 CALM      30.01R
BOOTHVILLE     CLEAR     80  77  90 S6        30.01R
BELLE CHASSE   PTCLDY    77  73  87 SW6       30.00R
BOGALUSA*        N/A     78  73  87 CALM      30.02R
GALLIANO*      NOT AVBL
NEW ROADS*       N/A     77  74  90 CALM      30.01S
GONZALES*      MOCLDY    77  77  99 CALM      30.00R
HAMMOND*       CLEAR     77  72  83 CALM      30.02R
HOUMA*         PTCLDY    80  74  83 CALM      30.00S
PORT FOURCHON* PTCLDY    82  79  89 CALM      30.02S

$$

MSZ070-080>082-220400-
SOUTHERN MISSISSIPPI

CITY           SKY/WX    TMP DP  RH WIND       PRES   REMARKS
MCCOMB         CLEAR     75  70  84 CALM      30.02R
GULFPORT       CLEAR     81  72  74 CALM      29.99R
BILOXI         CLEAR     78  72  80 CALM      29.99R
PASCAGOULA     CLEAR     76  74  93 CALM      29.99R

$$

COASTAL OBSERVATIONS
LAKE AND NEARSHORE STATIONS

STATION/POSITION TIME  TEMP    WIND        PRES    WAVE
                       AIR SEA DIR/SP/G            HT/PER
                 (UTC) (F)     (DEG/KT/KT) (MB)    (FT/S)
PASCAGOULA       0300   82     310/  5/  6 1015.1
WAVELAND YACHT   0300   82     270/  2/  2 1015.0
GRAND ISLE       0300   82 85  180/  3/  4 1016.7
SOUTHWEST PASS   0300   82 85  190/  5/  6 1016.4
NEW CANAL        0300   85 85  170/  2/  2 1016.2
SHELL BEACH      0300   80 82  170/  4/  5 1015.7

OFFSHORE STATIONS

STATION/POSITION TIME  TEMP    WIND        PRES    WAVE
                       AIR SEA DIR/SP/G            HT/PER
                 (UTC) (F)     (DEG/KT/KT) (MB)    (FT/S)

$$




USA.gov is the U.S. government's official web portal to all federal, state and local government web resources and services.